カタログに戻る

FENGYUN 1C DEB

運用中LEO
NORAD 31378·DEBRIS·🇨🇳 China

打ち上げ May 10, 1999 から Taiyuan Satellite Launch Center

Loading…

次のパス (今後24時間)

TLE

最新Source: Space-Track

元期: Sep 13, 2026, 18:53 UTC

1 31378U 99025BSJ 26256.78696801  .00000451  00000-0  43562-3 0  9996
2 31378 100.7453 188.0323 0166657 225.6773 133.0611 13.80530306980182

AllMySatでFENGYUN 1C DEBをリアルタイム追跡

Download on the App Store